Zurück zum Katalog

METEOR 1-16 DEB

AktivPO
NORAD 42999·DEBRIS·🇷🇺 Russia

Gestartet Mar 5, 1974 von Plesetsk Cosmodrome

Loading…

Nächste Überflüge (nächste 24 Stunden)

TLE

AlterndSource: Space-Track

Epoche: Sep 10, 2026, 06:50 UTC

1 42999U 74011C   26253.28534667  .00006291  00000-0  17853-2 0  9999
2 42999  81.2302 258.1920 0034749  33.1650 327.1708 14.45020803527068

Verfolge METEOR 1-16 DEB in Echtzeit mit AllMySat

Download on the App Store